Flag for USA

Past Weather in 42°04'57"N, 75°54'59"W, USA — Yesterday and Last 2 Weeks

Now
73 °F

Passing clouds.


Feels Like: 76 °F
Forecast: 78 / 64 °F
Wind: 12 mph from South

Location: Binghamton Regional Airport
Current Time: Sep 28, 2020 at 6:56:36 pm
Latest Report: Sep 28, 2020 at 5:53 pm
Visibility: 10 mi
Pressure29.79 "Hg
Humidity: 62%
Dew Point: 59 °F
Location of 42°04'57"N, 75°54'59"WLocation

Past Weather in 42°04'57"N, 75°54'59"W — Graph

°F

42°04'57"N, 75°54'59"W Temperature Yesterday

Maximum temperature yesterday: 73 °F (at 3:53 pm)
Minimum temperature yesterday: 62 °F (at 7:10 am)
Average temperature yesterday: 65 °F

High & Low Weather Summary for the Past Weeks

 TemperatureHumidityPressure
High75 °F (Sep 25, 3:53 pm)100% (Sep 13, 11:44 pm)30.63 "Hg (Sep 13, 11:44 pm)
Low34 °F (Sep 21, 6:53 am)31% (Sep 18, 3:53 pm)29.79 "Hg (Sep 28, 4:53 pm)
Average57 °F72%30.13 "Hg
* Reported Sep 13 5:53 pm — Sep 28 5:53 pm, 42°04'57"N, 75°54'59"W. Weather by CustomWeather, © 2020

Note: Actual official high and low records may vary slightly from our data, if they occured in-between our weather recording intervals... More about our weather records

42°04'57"N, 75°54'59"W Weather History for the Previous 24 Hours

Scroll right to see more
 ConditionsComfort  
Time TempWeatherWind HumidityBarometerVisibility
5:53 pm
Mon, Sep 28
73 °FPassing clouds.12 mph62%29.79 "Hg10 mi
4:53 pm74 °FScattered clouds.12 mph62%29.79 "Hg10 mi
3:53 pm75 °FSunny.10 mph55%29.80 "Hg10 mi
2:53 pm75 °FPassing clouds.15 mph55%29.81 "Hg10 mi
1:53 pm75 °FScattered clouds.12 mph60%29.82 "Hg10 mi
1:07 pm72 °FBroken clouds.9 mph66%29.87 "Hg10 mi
11:53 am70 °FBroken clouds.9 mph71%29.85 "Hg10 mi
10:53 am67 °FBroken clouds.8 mph81%29.86 "Hg10 mi
10:27 am67 °FBroken clouds.10 mph79%29.89 "Hg10 mi
10:00 am67 °FBroken clouds.9 mph87%29.89 "Hg10 mi
8:53 am63 °FFog.3 mph97%29.85 "Hg6 mi
8:09 am62 °FFog.5 mph100%29.87 "Hg3 mi
8:04 am62 °FFog.5 mph100%29.87 "Hg1 mi
7:37 am62 °FFog.3 mph100%29.86 "Hg1 mi
7:23 am62 °FFog.No wind100%29.86 "Hg0 mi
7:08 am62 °FFog.3 mph100%29.86 "Hg0 mi
6:53 am62 °FFog.3 mph100%29.84 "Hg1 mi
6:41 am63 °FPassing clouds.No wind97%29.86 "Hg7 mi
6:20 am63 °FOvercast.5 mph97%29.87 "Hg7 mi
5:53 am64 °FMostly cloudy.No wind97%29.85 "Hg9 mi
4:53 am63 °FFog.5 mph100%29.83 "Hg6 mi
3:53 am64 °FLight rain. Mostly cloudy.7 mph97%29.84 "Hg8 mi
2:53 am62 °FMostly cloudy.5 mph100%29.85 "Hg10 mi
1:53 am63 °FPassing clouds.7 mph93%29.87 "Hg10 mi
1:05 am64 °FMostly cloudy.3 mph90%29.92 "Hg10 mi
12:11 am64 °FPartly cloudy.5 mph90%29.93 "Hg10 mi
11:53 pm
Sun, Sep 27
64 °FPassing clouds.5 mph90%29.91 "Hg10 mi
10:53 pm66 °FOvercast.6 mph84%29.92 "Hg10 mi
9:53 pm66 °FOvercast.6 mph84%29.92 "Hg10 mi
8:53 pm65 °FPassing clouds.6 mph85%29.92 "Hg10 mi
7:53 pm67 °FClear.9 mph81%29.90 "Hg10 mi
6:53 pm68 °FClear.9 mph76%29.89 "Hg10 mi
Weather by CustomWeather, © 2020

See weather overview